EA3DKP Weather Reports


Display with metric or nautical units.
time (UTC)temp
F
wind
direction
speed
MPH
gust
MPH
rain 1hr
in
rain 24hr
in
rain mn
in
humidity
%
barometer
mb
20260507120011 69 360 0.0 0.0 0.00 0.00 0.12 58 1011.5
20260507114504 68 360 0.0 0.0 0.00 0.00 0.12 59 1011.5
20260507113051 67 360 0.0 0.0 0.00 0.00 0.12 61 1011.8
20260507111550 67 360 0.0 0.0 0.00 0.00 0.12 62 1011.9
20260507110048 67 277 0.0 0.0 0.00 0.00 0.12 61 1011.9
20260507104544 66 279 0.0 0.0 0.00 0.00 0.12 64 1012.0
20260507103040 65 360 0.0 0.0 0.00 0.00 0.12 69 1012.2
20260507101538 64 277 0.0 0.0 0.00 0.00 0.12 73 1012.4
20260507100036 64 360 0.0 0.0 0.00 0.00 0.12 73 1012.3
20260507094535 64 360 0.0 0.0 0.00 0.00 0.12 73 1012.3
20260507093025 64 360 0.0 0.0 0.00 0.00 0.12 72 1012.2
20260507091525 64 360 0.0 0.0 0.00 0.00 0.12 72 1012.1
20260507090021 64 120 0.0 0.0 0.00 0.00 0.12 73 1012.0
20260507084517 62 135 0.0 0.0 0.00 0.00 0.12 76 1012.2
20260507083012 61 134 0.0 0.0 0.00 0.00 0.12 76 1012.4
20260507081509 61 360 0.0 0.0 0.00 0.00 0.12 80 1012.5
20260507080005 60 123 0.0 0.0 0.00 0.00 0.12 83 1012.6
20260507074601 59 360 0.0 0.0 0.00 0.00 0.12 86 1012.4
20260507073045 58 360 0.0 0.0 0.00 0.00 0.12 87 1012.4
20260507071600 57 360 0.0 0.0 0.00 0.00 0.12 88 1012.3
20260507070037 56 360 0.0 0.0 0.00 0.00 0.12 88 1012.2
20260507064531 56 360 0.0 0.0 0.00 0.00 0.12 89 1012.2
20260507063026 55 360 0.0 0.0 0.00 0.00 0.12 89 1012.2
20260507061523 54 360 0.0 0.0 0.00 0.00 0.12 89 1011.9
20260507060018 53 360 0.0 0.0 0.00 0.00 0.12 89 1011.9
20260507054515 52 360 0.0 0.0 0.00 0.00 0.12 88 1011.8
20260507053002 52 360 0.0 0.0 0.00 0.00 0.12 88 1011.8
20260507051606 52 360 0.0 0.0 0.00 0.00 0.12 88 1011.6
20260507050104 51 360 0.0 0.0 0.00 0.00 0.12 88 1011.5
20260507044559 52 126 0.0 0.0 0.00 0.00 0.12 88 1011.6
20260507043056 52 360 0.0 0.0 0.00 0.00 0.12 88 1011.7
20260507041556 53 360 0.0 0.0 0.00 0.00 0.12 88 1011.6
20260507040052 53 360 0.0 0.0 0.00 0.00 0.12 88 1011.5
20260507034550 54 360 0.0 0.0 0.00 0.00 0.12 88 1011.5
20260507033044 54 360 0.0 0.0 0.00 0.00 0.12 88 1011.5
20260507031539 54 360 0.0 0.0 0.00 0.00 0.12 88 1011.6
20260507030039 54 360 0.0 0.0 0.00 0.00 0.12 88 1011.5
20260507024540 54 360 0.0 0.0 0.00 0.00 0.12 88 1011.4
20260507023037 54 126 0.0 0.0 0.00 0.00 0.12 88 1011.5
20260507021537 54 126 0.0 0.0 0.00 0.00 0.12 88 1011.4
20260507020037 54 360 0.0 0.0 0.00 0.00 0.12 88 1011.4
20260507014542 54 126 0.0 0.0 0.00 0.00 0.12 88 1011.6
20260507013016 54 126 0.0 0.0 0.00 0.00 0.12 88 1011.7
20260507011516 54 126 0.0 0.0 0.00 0.00 0.12 88 1011.8
20260507010004 55 360 0.0 0.0 0.00 0.00 0.12 88 1011.9
20260507004503 55 360 0.0 0.0 0.00 0.00 0.12 88 1012.1
20260507003004 55 360 0.0 0.0 0.00 0.00 0.12 88 1012.2
20260507001501 55 360 0.0 0.0 0.00 0.00 0.12 87 1012.2
20260507000002 55 360 0.0 0.0 0.00 0.00 0.12 87 1012.3
20260506234559 55 360 0.0 0.0 0.00 0.00 0.12 87 1012.4
20260506233059 56 360 0.0 0.0 0.00 0.00 0.12 87 1012.4
20260506231601 56 360 0.0 0.0 0.00 0.00 0.12 87 1012.3
20260506230058 56 360 0.0 0.0 0.00 0.00 0.12 87 1012.5
20260506224545 56 360 0.0 0.0 0.00 0.00 0.12 87 1012.5
20260506223044 57 360 0.0 0.0 0.00 0.00 0.12 87 1012.5
20260506221542 56 360 0.0 0.0 0.00 0.00 0.12 87 1012.3
20260506220047 56 126 0.0 0.0 0.00 0.00 0.12 86 1012.3
20260506214549 56 126 0.0 0.0 0.00 0.00 0.12 87 1012.2
20260506213041 57 126 0.0 0.0 0.00 0.00 0.12 87 1012.2
20260506211539 57 126 0.0 0.0 0.00 0.00 0.12 87 1012.2
20260506210039 57 126 0.0 0.0 0.00 0.00 0.12 87 1012.2
20260506204521 57 126 0.0 0.0 0.00 0.00 0.12 87 1012.3
20260506203021 58 360 0.0 0.0 0.00 0.00 0.12 87 1012.2
20260506201516 58 360 0.0 0.0 0.00 0.00 0.12 87 1012.2
20260506200020 58 37 0.0 0.0 0.00 0.00 0.11 87 1012.1
20260506194518 57 36 0.0 0.0 0.00 0.00 0.10 87 1011.9
20260506193011 57 36 0.0 0.0 0.00 0.00 0.10 87 1011.7
20260506191604 57 36 0.0 0.0 0.00 0.00 0.10 87 1011.4
20260506190049 57 36 0.0 0.0 0.00 0.00 0.10 87 1011.2
20260506184530 58 36 0.0 0.0 0.00 0.00 0.10 87 1011.1
20260506183028 58 35 0.0 0.0 0.00 0.00 0.10 86 1010.9
20260506181516 58 360 0.0 0.0 0.00 0.00 0.10 86 1010.7
20260506180013 59 360 0.0 0.0 0.00 0.00 0.10 86 1010.2
20260506174510 58 360 0.0 0.0 0.00 0.00 0.10 85 1010.2
20260506173011 58 360 0.0 0.0 0.00 0.00 0.10 85 1010.1
20260506171509 59 360 0.0 0.0 0.00 0.00 0.10 84 1010.2
20260506170008 59 360 0.0 0.0 0.00 0.00 0.10 84 1010.0
20260506164507 59 173 0.0 0.0 0.00 0.00 0.10 83 1010.0
20260506163008 59 360 0.0 0.0 0.00 0.00 0.09 83 1010.1
20260506161555 60 173 0.0 0.0 0.00 0.00 0.09 79 1010.2
20260506160047 62 360 0.0 0.0 0.00 0.00 0.03 73 1010.3
20260506154547 62 181 0.0 0.0 0.00 0.00 0.00 70 1010.0
20260506153040 62 201 0.0 0.0 0.00 0.00 0.00 69 1009.4
20260506151537 63 207 0.0 0.0 0.00 0.00 0.00 67 1009.1
20260506150036 64 219 0.0 0.0 0.00 0.00 0.20 67 1009.1
20260506144549 65 360 0.0 0.0 0.00 0.00 0.20 65 1009.2
20260506143034 66 360 0.0 0.0 0.00 0.00 0.20 62 1009.2
20260506141531 66 279 0.0 0.0 0.00 0.00 0.20 63 1009.2
20260506140023 66 266 0.0 0.0 0.00 0.00 0.20 62 1009.4
20260506134522 66 234 0.0 0.0 0.00 0.00 0.20 62 1009.6
20260506133020 66 360 0.0 0.0 0.00 0.00 0.20 61 1009.7
20260506131524 66 242 0.0 0.0 0.00 0.00 0.20 62 1009.7
20260506130019 65 360 0.0 0.0 0.00 0.00 0.20 65 1009.8
20260506124516 63 220 0.0 0.0 0.00 0.00 0.20 68 1010.0
20260506123016 63 360 0.0 0.0 0.00 0.00 0.20 71 1010.2
20260506121506 63 360 0.0 0.0 0.00 0.00 0.20 71 1010.2